Stations météo

Publicité
Chartres, France (7143): Température de l'air & dewpoint: 19.03.2019 13:00:00 - 25.03.2019 13:00:00 (CET)Chartres, France (7143): Température de l'air 5cm: 19.03.2019 13:00:00 - 25.03.2019 13:00:00 (CET)Chartres, France (7143): Température de l'air -20cm & Température de l'air -100cm: 19.03.2019 13:00:00 - 25.03.2019 13:00:00 (CET)Chartres, France (7143): Vitesse du vent & gusts: 19.03.2019 13:00:00 - 25.03.2019 13:00:00 (CET)Chartres, France (7143): Direction du vent: 19.03.2019 13:00:00 - 25.03.2019 13:00:00 (CET)Chartres, France (7143): reduced air pressure: 19.03.2019 13:00:00 - 25.03.2019 13:00:00 (CET)Chartres, France (7143): visibility: 19.03.2019 13:00:00 - 25.03.2019 13:00:00 (CET)Chartres, France (7143): Ensoleillement: 19.03.2019 13:00:00 - 25.03.2019 13:00:00 (CET)Chartres, France (7143): Quantités de précipitations: 19.03.2019 13:00:00 - 25.03.2019 13:00:00 (CET)
Date & Time tt [°C] td [°C] tt 5cm [°C] tt -20cm [°C] tt -100cm [°C] ff [km/h] ff [knt] fx [km/h] fx [knt] dd ppp [hPa] vv [km] sd [min] rr [mm]
25.03.2019 13:00:00 - - - - - - - - - - - - - -
25.03.2019 12:00:00 10,0 2,1 11,1 8,7 9,2 22 12 40 22 N 1030,0 20 29 0,0
25.03.2019 11:00:00 9,4 4,2 10,5 8,6 9,2 16 9 34 19 NNW 1030,0 20 30 0,0
25.03.2019 10:00:00 8,7 5,3 6,8 8,7 9,2 18 10 33 18 N 1029,7 20 60 0,0
25.03.2019 09:00:00 6,9 4,4 4,4 8,8 9,2 11 6 25 13 NNW 1029,4 18 60 0,0
25.03.2019 08:00:00 4,7 3,4 1,6 8,9 9,2 8 5 18 10 NNW 1029,4 16 46 0,0
25.03.2019 07:00:00 3,2 2,6 0,9 8,9 9,2 6 4 13 7 NNW 1029,1 10 0 0,0
25.03.2019 06:00:00 3,6 2,9 0,8 9,0 9,2 8 4 16 9 NNW 1028,5 10 0 0,0
25.03.2019 05:00:00 3,7 3,3 0,9 9,1 9,2 5 3 14 8 NW 1028,2 6 0 0,0
25.03.2019 04:00:00 3,6 3,0 1,7 9,2 9,2 7 4 14 7 NNW 1028,4 7 0 0,0
25.03.2019 03:00:00 3,2 2,2 -0,1 9,3 9,2 7 4 15 8 NNW 1028,6 11 0 0,0
25.03.2019 02:00:00 3,2 1,4 1,2 9,4 9,2 6 4 15 8 NNW 1028,9 17 0 0,0
25.03.2019 01:00:00 3,3 0,2 0,2 9,5 9,2 5 3 13 7 NNW 1029,1 20 0 0,0
25.03.2019 00:00:00 4,1 -0,1 1,4 9,5 9,2 5 3 15 8 NNW 1029,3 20 0 0,0
24.03.2019 23:00:00 4,6 -0,4 3,0 9,6 9,2 8 5 17 9 NNW 1029,5 20 0 0,0
24.03.2019 22:00:00 5,7 0,8 4,3 9,7 9,2 10 5 18 10 NNW 1029,2 20 0 0,0
24.03.2019 21:00:00 6,9 2,4 5,5 9,7 9,2 8 4 19 10 NNW 1029,1 20 0 0,0
24.03.2019 20:00:00 8,4 3,4 6,6 9,7 9,2 9 5 17 9 NNW 1028,8 19 0 0,0
24.03.2019 19:00:00 10,3 4,9 8,8 9,6 9,2 6 3 24 13 N 1028,1 20 45 0,0
24.03.2019 18:00:00 11,3 5,2 11,5 9,6 9,2 13 7 24 13 NNE 1027,7 20 11 0,0
24.03.2019 17:00:00 11,2 5,7 11,6 9,5 9,2 10 5 25 14 N 1027,9 19 3 0,0
24.03.2019 16:00:00 10,9 6,0 11,6 9,4 9,2 14 8 31 17 N 1028,2 19 0 0,0
24.03.2019 15:00:00 10,5 6,8 11,9 9,2 9,2 14 7 26 14 N 1028,2 9 8 0,0
24.03.2019 14:00:00 11,0 7,1 12,7 9,1 9,2 16 8 27 15 N 1028,2 8 16 0,0
24.03.2019 13:00:00 11,0 7,1 13,0 9,1 9,2 11 6 23 13 N 1028,7 7 9 0,0
24.03.2019 12:00:00 10,1 6,2 13,1 9,0 9,2 15 8 26 14 NNE 1029,1 8 19 0,0
24.03.2019 11:00:00 9,9 6,2 11,1 9,0 9,2 13 7 25 13 N 1028,9 8 10 0,0
24.03.2019 10:00:00 9,7 6,2 9,7 9,0 9,2 11 6 22 12 NNE 1028,5 6 12 0,0
24.03.2019 09:00:00 8,3 6,9 8,1 9,0 9,2 8 5 16 9 N 1028,5 4,2 0 0,0
24.03.2019 08:00:00 7,9 7,1 7,2 9,0 9,1 9 5 16 8 N 1028,3 3,0 0 0,0
24.03.2019 07:00:00 7,7 6,9 7,0 9,0 9,2 6 3 14 8 N 1028,3 2,4 0 0,0
24.03.2019 06:00:00 7,6 6,8 6,8 9,0 9,1 7 4 11 6 N 1028,0 2,4 0 0,0
24.03.2019 05:00:00 7,5 6,6 6,5 9,1 9,1 6 3 12 7 N 1027,8 2,9 0 0,0
24.03.2019 04:00:00 7,3 6,2 5,8 9,2 9,2 8 4 14 8 N 1027,9 4,0 0 0,0
24.03.2019 03:00:00 6,7 5,8 4,0 9,2 9,1 6 4 11 6 N 1028,4 4,5 0 0,0
24.03.2019 02:00:00 5,6 5,0 1,2 9,4 9,1 4 2 6 3 NNW 1028,6 4,3 0 0,0
24.03.2019 01:00:00 4,6 4,2 -0,7 9,5 9,1 3 2 6 4 NNW 1028,9 4,0 0 0,0
24.03.2019 00:00:00 4,5 3,6 -0,7 9,5 9,1 4 2 5 3 NNW 1029,3 4,5 0 0,0
23.03.2019 23:00:00 5,0 3,7 0,1 9,6 9,2 3 2 5 3 NNE 1029,7 6 0 0,0
23.03.2019 22:00:00 6,4 4,4 1,6 9,6 9,1 3 2 10 5 N 1029,8 8 0 0,0
23.03.2019 21:00:00 7,8 4,6 5,6 9,6 9,1 6 4 14 8 NNE 1029,7 11 0 0,0
23.03.2019 20:00:00 9,0 5,2 7,5 9,6 9,1 10 5 19 10 NE 1029,4 11 0 0,0
23.03.2019 19:00:00 10,6 5,4 9,4 9,5 9,1 10 5 24 13 NNE 1029,1 12 41 0,0
23.03.2019 18:00:00 12,1 5,9 12,4 9,4 9,1 9 5 23 12 N 1028,8 14 47 0,0
23.03.2019 17:00:00 12,4 6,7 13,8 9,3 9,1 11 6 21 11 N 1029,1 13 53 0,0
23.03.2019 16:00:00 12,3 7,4 13,9 9,2 9,1 10 6 21 11 N 1029,4 11 26 0,0
23.03.2019 15:00:00 11,3 7,6 14,1 9,1 9,1 10 5 21 11 N 1029,9 11 17 0,0
23.03.2019 14:00:00 11,0 7,7 14,6 9,0 9,1 10 6 19 10 N 1030,3 9 7 0,0
23.03.2019 13:00:00 9,8 7,0 11,9 8,9 9,1 8 4 19 10 NNE 1030,8 8 0 0,0
23.03.2019 12:00:00 8,3 7,2 8,4 8,9 9,1 10 5 25 14 NNE 1031,0 6 0 0,0
23.03.2019 11:00:00 6,8 6,8 6,6 8,9 9,1 13 7 25 14 NNE 1031,1 4,4 0 0,0
23.03.2019 10:00:00 5,4 5,4 5,7 9,0 9,1 13 7 28 15 N 1031,4 0,9 0 0,0
23.03.2019 09:00:00 5,3 5,3 5,4 9,0 9,1 10 5 26 14 N 1031,0 0,3 0 0,0
23.03.2019 08:00:00 5,0 5,0 4,4 9,1 9,1 10 5 23 12 N 1030,5 0,2 0 0,0
23.03.2019 07:00:00 4,3 4,3 4,3 9,2 9,1 10 5 22 12 N 1030,1 0,1 0 0,0
23.03.2019 06:00:00 4,6 4,5 3,1 9,3 9,1 11 6 20 11 N 1029,6 0,1 0 0,0
23.03.2019 05:00:00 4,9 4,6 -0,8 9,4 9,1 5 3 10 6 N 1029,5 1,3 0 0,0
23.03.2019 04:00:00 4,4 3,8 -0,7 9,5 9,1 4 2 8 4 NNW 1029,3 2,1 0 0,0
23.03.2019 03:00:00 5,3 4,3 0,2 9,6 9,1 4 2 8 5 N 1029,4 3,5 0 0,0
23.03.2019 02:00:00 4,9 2,6 0,0 9,7 9,1 6 3 14 7 N 1029,4 11 0 0,0
23.03.2019 01:00:00 4,8 2,3 0,5 9,8 9,1 4 2 6 3 W 1029,1 11 0 0,0
23.03.2019 00:00:00 6,7 3,8 1,5 9,9 9,1 6 3 10 5 NW 1029,1 10 0 0,0
22.03.2019 23:00:00 5,7 2,7 1,7 10,0 9,1 5 3 6 4 WSW 1029,3 11 0 0,0
22.03.2019 22:00:00 6,8 3,4 2,0 10,0 9,0 3 2 4 2 W 1029,1 12 0 0,0
22.03.2019 21:00:00 7,2 3,1 2,7 10,0 9,1 0 0 0 0 N 1028,7 15 0 0,0
22.03.2019 20:00:00 9,7 3,0 4,5 10,0 9,1 0 0 4 2 N 1028,5 15 0 0,0
22.03.2019 19:00:00 13,6 2,8 10,0 9,9 9,1 3 2 14 7 SSW 1027,8 20 38 0,0
22.03.2019 18:00:00 16,2 2,2 17,4 9,8 9,1 8 5 16 9 SSW 1027,2 20 60 0,0
22.03.2019 17:00:00 16,9 0,9 21,6 9,6 9,0 8 4 16 9 SSW 1027,3 19 60 0,0
22.03.2019 16:00:00 17,3 1,3 23,3 9,4 9,0 5 3 13 7 WSW 1027,7 19 60 0,0
22.03.2019 15:00:00 16,6 6,4 22,8 9,2 9,0 5 3 13 7 WSW 1028,0 13 60 0,0
22.03.2019 14:00:00 14,7 7,3 21,9 9,0 9,0 4 2 12 7 NNW 1028,5 15 60 0,0
22.03.2019 13:00:00 12,7 7,6 19,6 8,8 9,0 3 1 13 7 N 1029,4 14 60 0,0
22.03.2019 12:00:00 9,7 8,6 13,3 8,8 9,0 4 2 11 6 NW 1029,9 8 44 0,0
22.03.2019 11:00:00 7,6 7,6 9,3 8,8 9,0 2 1 8 5 N 1030,2 3,7 16 0,0
22.03.2019 10:00:00 6,6 6,6 7,5 8,8 9,1 0 0 5 3 N 1030,2 0,5 0 0,0
22.03.2019 09:00:00 5,7 5,7 5,7 8,8 9,0 2 1 8 4 ENE 1030,0 0,2 0 0,0
22.03.2019 08:00:00 5,2 5,2 5,2 8,8 9,0 5 3 10 6 NNE 1030,0 0,1 0 0,0
22.03.2019 07:00:00 5,1 5,1 5,1 8,9 9,1 8 4 12 6 N 1029,9 0,1 0 0,0
22.03.2019 06:00:00 5,3 5,3 5,1 8,9 9,0 6 3 14 7 N 1029,5 0,1 0 0,0
22.03.2019 05:00:00 5,1 5,1 4,4 9,0 9,0 6 3 11 6 N 1029,7 0,1 0 0,0
22.03.2019 04:00:00 4,9 4,8 2,0 9,1 9,0 7 4 13 7 NNW 1029,9 0,1 0 0,0
22.03.2019 03:00:00 5,2 4,9 2,0 9,2 9,0 6 3 11 6 N 1030,1 1,7 0 0,0
22.03.2019 02:00:00 5,8 5,4 2,5 9,3 9,1 5 3 10 5 N 1030,5 2,8 0 0,0
22.03.2019 01:00:00 6,3 5,6 2,6 9,3 9,1 5 3 9 5 N 1030,8 5 0 0,0
22.03.2019 00:00:00 7,3 6,1 4,3 9,4 9,1 6 3 13 7 N 1031,2 8 0 0,0
21.03.2019 23:00:00 8,2 6,5 5,0 9,4 9,0 7 4 11 6 N 1031,2 10 0 0,0
21.03.2019 22:00:00 8,9 6,3 5,2 9,4 9,0 6 3 10 5 N 1031,5 9 0 0,0
21.03.2019 21:00:00 10,1 6,4 7,1 9,4 9,0 6 4 13 7 N 1031,2 18 0 0,0
21.03.2019 20:00:00 11,5 6,8 9,5 9,4 9,0 9 5 20 11 NNE 1031,0 20 0 0,0
21.03.2019 19:00:00 13,1 6,9 11,3 9,2 9,0 10 6 21 12 N 1030,6 20 37 0,0
21.03.2019 18:00:00 14,7 7,0 16,6 9,1 9,0 11 6 24 13 N 1030,4 20 60 0,0
21.03.2019 17:00:00 15,6 7,1 20,1 8,9 9,0 14 8 29 16 NNE 1030,6 18 60 0,0
21.03.2019 16:00:00 15,3 6,6 20,6 8,8 9,0 14 8 36 19 N 1031,2 19 60 0,0
21.03.2019 15:00:00 14,9 6,7 19,9 8,6 9,0 14 8 29 16 N 1031,7 18 60 0,0
21.03.2019 14:00:00 14,6 7,4 16,1 8,4 9,0 14 8 29 16 N 1032,5 19 47 0,0
21.03.2019 13:00:00 13,9 7,0 18,5 8,3 9,0 14 7 25 14 N 1033,3 19 52 0,0
21.03.2019 12:00:00 13,4 6,3 20,3 8,2 9,0 14 7 29 15 N 1033,5 20 60 0,0
21.03.2019 11:00:00 12,3 6,1 17,4 8,2 9,0 9 5 19 11 NNE 1034,1 17 60 0,0
21.03.2019 10:00:00 10,8 7,1 7,2 8,2 9,0 10 5 15 8 NNE 1034,3 14 60 0,0
21.03.2019 09:00:00 8,6 6,2 5,0 8,3 9,0 8 4 13 7 NNE 1034,4 10 60 0,0
21.03.2019 08:00:00 6,1 5,4 1,4 8,3 9,0 5 3 8 4 N 1034,5 5 42 0,0
21.03.2019 07:00:00 5,2 4,6 1,6 8,4 9,0 4 2 6 4 N 1034,3 4,8 0 0,0
21.03.2019 06:00:00 5,8 5,1 3,1 8,5 9,0 3 2 5 3 N 1034,1 7 0 0,0
21.03.2019 05:00:00 5,4 4,7 0,9 8,5 9,0 4 2 9 5 N 1034,2 7 0 0,0
21.03.2019 04:00:00 4,6 3,9 0,4 8,6 9,0 4 2 7 4 N 1034,1 7 0 0,0
21.03.2019 03:00:00 5,4 4,4 1,7 8,7 9,1 4 2 8 4 NNW 1034,4 10 0 0,0
21.03.2019 02:00:00 4,4 3,8 -0,3 8,8 9,0 3 2 5 3 NNW 1034,9 9 0 0,0
21.03.2019 01:00:00 3,6 2,6 0,1 8,8 9,1 2 1 6 3 NNW 1035,0 7 0 0,0
21.03.2019 00:00:00 4,5 3,5 0,5 8,9 9,0 3 1 5 3 NNW 1035,0 12 0 0,0
20.03.2019 23:00:00 5,4 4,0 0,8 9,0 9,1 4 2 5 3 N 1035,0 13 0 0,0
20.03.2019 22:00:00 5,8 4,1 1,5 9,0 9,0 3 2 4 2 N 1034,9 16 0 0,0
20.03.2019 21:00:00 6,8 4,3 2,7 9,0 9,0 4 2 5 3 NE 1034,7 20 0 0,0
20.03.2019 20:00:00 8,4 4,8 4,1 8,9 9,0 2 1 4 2 NE 1034,3 20 0 0,0
20.03.2019 19:00:00 11,4 5,3 8,5 8,8 9,0 2 1 13 7 NE 1033,9 20 30 0,0
20.03.2019 18:00:00 12,4 5,1 12,9 8,7 9,0 9 5 14 7 NNE 1033,8 20 13 0,0
20.03.2019 17:00:00 12,8 4,7 14,3 8,5 9,0 7 4 16 9 N 1033,9 20 7 0,0
20.03.2019 16:00:00 12,7 3,6 14,8 8,3 9,0 6 4 19 10 NNE 1034,0 20 25 0,0
20.03.2019 15:00:00 12,7 3,6 15,0 8,1 9,0 6 3 17 9 NNE 1034,1 20 22 0,0
20.03.2019 14:00:00 12,6 3,5 15,2 8,0 9,0 6 3 11 6 N 1034,4 19 6 0,0
20.03.2019 13:00:00 11,8 4,3 14,6 7,9 9,0 2 1 9 5 NE 1035,0 20 2 0,0
20.03.2019 12:00:00 12,0 4,9 17,2 7,8 9,0 3 2 10 5 NNE 1035,1 17 56 0,0
20.03.2019 11:00:00 10,8 5,5 10,4 7,8 9,0 2 1 7 4 ESE 1035,3 14 17 0,0
20.03.2019 10:00:00 7,5 5,6 6,5 7,8 9,0 2 1 6 3 NNW 1035,4 19 11 0,0
20.03.2019 09:00:00 4,6 4,2 0,1 7,9 9,0 2 1 6 3 WSW 1035,1 13 39 0,0
20.03.2019 08:00:00 1,6 1,5 -2,5 8,0 9,0 3 1 12 7 SE 1034,9 7 15 0,0
20.03.2019 07:00:00 0,5 0,2 -3,2 8,1 9,0 3 2 5 3 WNW 1034,2 9 0 0,0
20.03.2019 06:00:00 -0,4 -1,0 -3,0 8,2 9,0 0 0 4 2 N 1033,9 7 0 0,0
20.03.2019 05:00:00 0,3 -0,1 -2,6 8,3 9,0 2 1 6 4 WNW 1033,8 9 0 0,0
20.03.2019 04:00:00 0,8 0,4 -2,6 8,4 9,1 3 2 3 2 WNW 1033,5 13 0 0,0
20.03.2019 03:00:00 0,9 0,3 -2,1 8,5 9,0 2 1 5 3 W 1033,8 12 0 0,0
20.03.2019 02:00:00 1,6 1,0 -1,8 8,6 9,0 2 1 5 3 WNW 1033,6 13 0 0,0
20.03.2019 01:00:00 2,0 1,3 -1,5 8,7 9,0 2 1 6 3 SW 1033,3 13 0 0,0
20.03.2019 00:00:00 3,2 2,3 -0,9 8,7 9,0 4 2 6 4 WNW 1033,5 17 0 0,0
19.03.2019 23:00:00 4,6 3,3 -0,2 8,8 9,0 4 2 7 4 NW 1033,1 18 0 0,0
19.03.2019 22:00:00 5,0 3,3 0,6 8,8 9,0 3 1 6 3 NW 1032,3 19 0 0,0
19.03.2019 21:00:00 5,1 2,8 1,3 8,9 9,0 3 2 5 3 WNW 1031,8 19 0 0,0
19.03.2019 20:00:00 5,9 2,7 1,8 8,8 9,1 2 1 4 2 W 1031,6 13 0 0,0
19.03.2019 19:00:00 9,1 3,3 5,2 8,8 9,0 3 1 8 4 NNW 1030,7 20 28 0,0
19.03.2019 18:00:00 10,6 4,3 9,7 8,7 9,0 5 3 10 6 N 1029,9 20 15 0,0
19.03.2019 17:00:00 10,6 3,8 11,3 8,5 9,0 3 2 11 6 WNW 1029,7 20 0 0,0
19.03.2019 16:00:00 10,6 4,1 10,7 8,4 9,0 5 3 14 7 NW 1029,7 20 0 0,0
19.03.2019 15:00:00 11,0 3,3 12,0 8,2 9,0 3 2 8 5 ESE 1029,7 20 8 0,0
19.03.2019 14:00:00 10,6 3,8 12,3 8,0 9,0 4 2 13 7 NNW 1029,8 20 29 0,0
19.03.2019 13:00:00 11,6 3,1 11,0 7,9 9,0 3 1 13 7 NW 1030,0 20 28 0,0

tt = Température de l'air
td = dewpoint
tt 5cm = Température de l'air 5cm
tt -20cm = Température de l'air -20cm
tt -100cm = Température de l'air -100cm
ff = Vitesse du vent
fx = gusts
dd = Direction du vent
ppp = reduced air pressure
vv = visibility
sd = Ensoleillement
rr = Quantités de précipitations

stations d'obs. à proximité